GEFSCGP_850_meantemp_036.txt.gz
Temperature
23 20 20 21 21 23 23 23 23 24 24 23 22 21 21 21 21 20 20 20 21 21 21 22 22 22 23 23 22 22 22 21 21 20 20 20 19 19 19 18 18 18 18 17
20 21 22 22 22 22 22 23 23 24 23 23 22 21 20 20 20 19 19 19 20 20 21 22 22 23 23 23 23 23 22 21 21 20 20 20 19 19 18 18 17 17 17 17
22 22 23 24 23 23 23 23 24 24 23 22 23 21 20 19 19 19 19 19 20 21 22 22 23 23 23 23 23 22 22 21 21 20 20 19 19 18 18 17 17 17 16 16
22 23 24 25 24 24 23 24 24 23 22 20 21 20 20 19 18 18 18 19 20 21 22 23 23 23 23 23 22 22 21 21 20 20 19 19 18 17 17 16 16 16 16 16
23 24 24 25 25 25 24 22 22 21 21 19 19 19 19 19 19 18 18 19 20 22 22 23 23 23 22 22 22 21 21 20 20 19 19 18 17 17 16 16 16 16 16 16
23 24 24 25 24 24 23 21 19 17 17 19 20 19 19 18 19 19 19 20 21 22 22 22 22 22 22 21 21 21 21 20 20 19 18 18 17 16 16 16 15 15 15 15
22 23 23 24 24 23 21 19 18 18 17 18 18 19 18 19 19 19 19 20 21 22 22 22 22 22 21 21 21 21 20 20 19 19 18 17 17 16 15 15 15 15 15 15
22 21 23 24 24 23 22 19 18 19 18 17 18 19 19 19 19 20 20 20 20 21 21 21 22 22 22 21 21 21 20 20 19 19 18 17 17 16 15 15 14 14 14 14
21 21 23 24 23 23 21 19 18 16 17 17 17 18 18 18 18 17 17 18 18 19 20 20 21 21 21 21 21 20 20 19 19 18 18 17 16 16 15 15 14 14 14 13
21 22 22 22 23 22 21 17 15 16 17 17 18 18 16 15 15 15 14 15 15 17 18 19 19 20 20 20 20 19 19 18 18 18 17 17 16 15 15 14 14 14 13 13
21 20 21 20 21 21 21 19 15 14 15 16 16 16 16 14 13 13 13 13 14 15 16 16 17 17 18 18 18 18 18 17 17 17 16 16 16 15 15 14 14 14 13 13
18 17 18 19 19 19 20 19 16 17 17 14 14 14 15 13 12 12 12 12 13 13 14 15 16 16 16 16 16 16 16 16 16 16 16 16 15 15 15 14 14 13 13 13
17 17 18 18 18 19 20 19 17 15 14 13 14 15 14 13 12 12 12 12 12 13 13 14 14 15 15 15 15 15 15 15 15 15 15 15 15 15 14 14 13 13 13 12
17 17 18 19 18 19 19 19 17 15 15 14 14 14 13 12 11 11 12 12 11 12 12 12 13 13 13 13 13 13 14 14 14 14 14 15 15 15 14 14 13 13 12 12
18 18 18 17 18 19 18 18 17 16 15 14 14 13 11 11 11 11 11 11 11 10 11 11 11 11 11 12 12 12 12 12 12 13 13 14 14 14 14 13 13 13 12 12
16 18 18 18 19 18 18 17 16 14 14 13 12 11 11 11 11 10 10 10 10 10 10 10 10 10 10 11 11 11 11 11 11 11 12 12 13 13 13 13 13 12 12 12
15 16 17 16 17 18 16 14 14 12 12 11 12 10 10 10 10 9 9 9 9 9 9 10 10 10 10 10 10 10 10 10 10 10 11 11 11 12 12 12 12 12 12 12
14 14 14 15 17 17 13 13 13 12 11 11 10 10 9 9 8 8 9 9 9 9 9 10 10 10 10 10 10 10 10 10 10 10 10 10 10 11 11 11 11 11 11 11
13 14 13 14 16 15 14 13 12 12 11 10 9 9 9 8 8 9 10 10 9 9 9 9 10 10 10 10 10 10 10 10 9 9 9 9 9 10 10 10 11 11 11 11
12 12 13 14 16 15 12 12 12 12 11 9 9 9 9 8 7 8 10 9 9 9 9 9 10 10 10 10 10 10 10 9 9 9 9 9 9 9 9 9 10 10 10 11
13 12 12 13 14 12 10 10 12 11 10 10 9 9 9 8 7 8 9 9 9 9 9 9 9 9 9 10 9 9 9 9 9 9 9 9 9 8 8 9 9 9 10 10
12 12 12 12 13 12 9 10 10 9 10 10 9 9 9 8 8 9 9 9 9 9 9 9 8 9 9 9 9 9 9 9 9 9 9 9 8 8 8 8 8 8 9 10
10 10 10 10 10 9 10 10 11 10 10 9 9 9 9 8 8 8 8 8 8 8 8 8 8 8 8 8 8 8 8 8 8 8 8 8 8 8 8 8 8 8 8 9
9 10 10 9 9 10 10 11 11 10 9 9 9 9 9 8 8 8 8 8 8 8 8 8 7 7 7 7 7 7 7 7 7 7 8 8 8 8 8 7 7 7 7 8
8 9 9 9 9 10 11 11 10 9 9 9 9 9 9 8 8 8 8 8 8 7 7 7 7 7 7 7 7 7 7 7 6 7 7 7 7 7 7 7 7 7 7 8
8 9 9 9 10 9 10 10 9 9 9 9 9 8 8 8 8 8 7 7 7 7 7 7 7 6 6 6 6 6 6 6 6 6 6 6 6 7 7 7 7 7 7 8

GEFSCGP_850_meantemp_042.txt.gz
Temperature
27 28 28 29 29 29 29 29 29 29 29 29 29 29 29 28 28 27 27 26 26 24 23 22 22 22 22 22 22 22 22 21 21 20 20 19 19 18 18 18 17 17 17 16
28 28 28 28 28 28 28 28 29 29 29 29 29 29 29 28 27 26 26 25 25 24 22 22 22 22 22 22 22 22 22 22 21 21 20 20 19 18 18 17 17 17 16 16
28 28 28 28 28 28 28 29 28 28 29 29 29 28 28 28 26 25 25 24 24 23 23 22 21 21 21 21 22 22 22 22 21 21 20 19 19 18 18 17 17 16 16 16
28 29 28 28 28 28 28 29 28 28 28 28 28 28 28 28 28 27 25 24 24 23 23 22 22 21 21 21 21 21 21 21 21 20 20 19 19 18 18 17 17 16 16 16
28 28 28 28 28 28 28 28 28 28 27 28 28 27 29 28 27 27 26 24 23 23 22 22 21 21 20 20 21 21 20 20 20 20 19 19 18 18 17 17 16 16 15 15
29 29 29 29 29 28 28 27 27 27 28 27 27 27 27 27 25 25 25 23 22 22 21 21 20 20 20 20 20 20 20 19 19 19 19 19 18 18 17 17 16 16 15 15
28 29 29 29 28 28 28 27 26 26 26 26 27 26 26 24 23 23 23 22 21 20 20 19 19 19 19 19 19 19 19 19 18 18 18 18 18 17 17 16 16 16 15 15
27 27 28 29 28 27 28 27 25 25 25 26 27 26 25 23 21 20 19 19 19 18 18 17 17 17 17 18 18 18 18 18 17 17 17 17 17 16 16 16 16 15 15 15
27 27 28 28 28 28 27 27 27 26 26 25 26 26 23 22 21 20 18 18 17 16 15 15 15 15 15 15 16 16 16 16 16 16 16 16 16 16 16 16 16 15 15 15
28 26 28 28 28 27 27 27 26 26 24 24 26 26 25 22 20 19 18 17 16 15 15 14 13 13 13 13 13 14 14 14 14 15 15 15 15 15 15 15 15 15 15 14
28 26 27 27 27 26 26 26 26 26 25 24 24 25 21 20 19 18 17 16 15 15 14 14 13 13 13 13 13 12 12 13 13 14 14 14 14 14 14 14 14 14 14 14
27 27 26 27 27 26 26 26 25 24 24 24 24 23 19 18 18 17 16 15 14 14 14 13 13 12 12 12 12 12 12 12 12 12 13 13 13 13 13 13 13 14 14 14
26 25 25 26 26 26 26 26 25 25 24 24 23 22 18 17 17 15 15 14 14 13 13 13 12 12 11 11 11 11 11 11 11 11 11 11 12 12 12 12 13 13 13 13
25 25 25 25 25 26 25 25 24 24 23 24 23 22 17 16 15 15 14 13 13 13 12 12 11 11 10 10 10 10 10 10 10 10 10 10 11 11 11 11 12 12 12 12
24 25 25 26 26 25 24 23 23 23 22 22 21 20 16 15 14 13 12 11 11 11 10 10 9 9 9 9 9 9 9 9 9 9 9 10 10 10 10 10 11 11 11 11
24 24 25 25 25 24 23 21 21 20 19 19 19 16 15 13 12 11 11 10 10 10 10 9 10 10 10 10 10 9 9 9 9 9 9 9 9 9 9 9 10 10 10 10
25 23 24 25 24 23 21 18 18 18 17 17 17 15 14 14 13 12 11 10 10 10 11 11 11 10 10 10 10 10 9 9 9 9 9 9 9 9 9 9 9 9 9 10
23 23 23 24 24 22 17 18 17 17 16 16 15 15 14 13 12 12 12 12 11 11 11 11 10 10 10 10 10 9 9 9 9 9 9 9 9 9 9 9 9 9 9 9
22 22 23 23 23 20 17 16 16 16 16 15 14 15 14 14 13 14 14 12 11 11 11 10 10 10 10 9 9 9 9 9 9 9 9 9 9 9 9 9 9 9 9 9
22 22 23 22 21 20 15 16 15 15 15 14 14 14 14 13 14 14 12 11 11 10 10 10 9 9 9 9 9 9 9 9 9 9 9 9 8 8 8 8 8 8 8 8
22 22 21 20 20 18 16 16 16 16 15 14 13 13 13 13 12 12 11 11 10 10 10 9 9 9 9 9 8 8 8 8 8 8 8 8 8 8 8 8 8 8 8 8
20 21 20 19 19 17 15 16 15 15 13 13 12 12 12 11 11 11 11 10 10 10 9 9 9 9 8 8 8 8 8 8 8 8 7 7 7 7 8 8 8 8 7 8
19 18 19 18 17 15 14 14 14 13 13 12 12 11 11 11 11 10 10 10 10 9 9 9 9 8 8 8 8 8 7 7 7 7 7 7 7 7 7 7 7 8 8 8
18 16 17 17 16 15 15 14 13 13 12 11 11 11 10 10 10 10 10 9 9 9 9 8 8 8 8 8 7 7 7 7 7 7 6 6 7 7 7 7 7 8 8 8
17 17 17 16 16 15 15 14 13 12 11 11 11 10 10 10 10 9 9 9 9 8 8 8 8 7 7 7 7 6 6 6 6 6 6 6 6 7 7 7 7 7 7 8
17 17 16 16 15 14 13 12 12 11 11 10 10 10 10 9 9 9 9 8 8 8 7 7 7 7 6 6 6 6 6 5 5 5 5 6 6 6 6 6 7 7 7 7

GEFSCGP_850_meantemp_048.txt.gz
Temperature
30 30 30 31 31 31 31 31 32 33 33 32 32 32 33 33 32 32 31 30 29 28 27 26 26 25 24 23 22 22 21 21 21 21 20 20 20 20 20 20 20 19 18 18
30 30 31 31 31 31 31 31 31 32 33 32 31 32 33 33 32 31 30 29 27 26 25 25 24 24 23 22 22 21 21 21 21 21 21 21 21 20 20 20 19 19 18 18
29 30 31 31 31 31 31 30 31 31 31 32 31 31 32 32 31 29 28 27 26 25 24 23 23 23 22 21 21 21 21 20 20 20 20 20 20 20 20 20 19 19 19 18
30 31 31 30 30 30 29 30 30 30 30 29 30 29 30 30 28 26 25 24 24 23 23 22 22 21 21 21 20 20 20 20 20 20 20 20 19 20 20 19 19 19 18 18
29 30 30 30 30 30 30 31 30 30 29 29 29 28 29 29 26 24 23 22 21 21 21 20 20 20 20 20 20 19 19 19 19 19 19 19 19 19 19 19 19 18 18 18
30 31 31 31 31 31 31 30 30 29 27 25 25 24 26 27 26 24 22 20 20 20 19 19 19 19 19 19 19 19 18 18 18 18 18 18 18 18 18 18 18 18 17 17
28 29 31 31 30 30 30 28 27 25 21 21 21 23 24 25 25 23 22 21 20 19 18 17 17 17 17 17 17 17 17 17 17 17 17 17 17 17 17 17 17 17 17 17
26 26 29 30 30 29 29 29 27 25 25 24 23 23 23 24 23 22 21 20 19 18 17 16 16 16 15 15 15 16 16 16 16 16 16 16 16 16 16 16 16 16 16 16
27 28 30 31 31 30 29 29 29 28 28 27 27 24 22 22 22 22 21 20 19 18 17 16 16 15 15 14 14 14 14 14 14 15 15 14 15 14 15 15 15 15 15 15
29 28 30 31 31 30 30 30 29 27 26 25 27 24 22 20 20 21 21 20 19 18 18 17 16 15 14 14 14 14 14 13 14 14 14 13 14 14 14 14 14 14 14 14
30 28 29 29 28 28 28 29 28 27 27 25 25 23 23 21 21 21 21 19 19 18 17 17 16 15 14 14 14 13 13 13 13 13 13 13 13 13 13 13 13 13 13 14
29 28 27 27 27 27 28 28 28 26 25 26 25 22 22 21 21 20 19 18 17 17 16 16 15 15 14 13 13 12 12 12 12 12 11 12 11 12 12 12 12 12 13 13
28 26 25 26 26 26 27 28 28 27 26 25 24 21 21 20 20 19 18 18 17 16 16 15 14 13 13 13 12 12 11 11 11 11 11 11 11 10 10 11 11 11 11 12
27 26 26 25 27 28 28 28 28 27 25 25 24 21 20 19 19 19 18 17 17 16 16 15 14 13 12 12 12 12 11 11 11 11 10 10 10 10 10 10 10 10 10 10
28 27 27 27 29 29 28 28 28 26 25 24 23 21 20 19 19 18 18 17 17 17 16 15 14 13 13 13 12 12 12 11 11 11 11 10 10 10 10 10 10 10 10 10
27 26 26 26 28 28 27 26 26 25 24 23 23 22 20 20 19 18 18 17 17 16 16 15 14 14 13 13 12 12 12 11 11 11 11 11 10 10 10 10 10 10 10 9
27 25 25 25 27 27 25 23 23 23 23 22 21 21 20 19 18 18 17 17 17 16 15 14 14 13 13 12 12 12 11 11 11 11 10 10 10 10 10 10 10 10 9 9
25 24 24 25 26 24 22 23 22 22 22 22 21 20 19 18 18 17 17 17 15 15 14 14 13 13 12 12 12 11 11 11 11 10 10 10 10 10 10 10 10 9 9 9
26 25 24 25 25 23 22 21 21 20 20 20 19 18 18 17 17 17 17 15 15 14 14 13 13 12 12 12 11 11 11 10 10 10 10 10 10 10 9 9 9 9 9 9
27 26 25 24 23 23 21 22 21 21 20 18 18 17 17 16 16 16 15 14 14 13 13 12 12 12 12 11 11 11 10 10 10 10 10 9 9 9 9 9 9 9 8 8
25 25 25 24 23 23 21 21 21 19 18 17 17 16 16 16 15 15 14 14 13 13 12 12 12 11 11 11 10 10 10 10 9 9 9 9 9 9 9 8 8 8 8 8
24 24 23 23 22 21 20 20 19 18 17 17 16 16 15 15 14 14 14 13 13 12 12 12 11 11 10 10 10 9 9 9 9 8 8 8 8 8 8 8 8 8 8 8
24 22 22 22 21 21 20 19 18 17 17 16 15 15 15 14 14 13 13 13 12 12 11 11 10 10 9 9 9 8 8 8 8 7 7 7 7 7 7 7 7 8 8 8
23 22 22 21 22 21 20 19 17 16 16 15 15 14 14 14 13 13 13 12 12 11 10 10 9 9 8 8 7 7 7 7 6 6 6 6 6 6 6 7 7 7 7 8
23 23 22 21 21 19 19 17 16 16 15 15 14 14 14 13 13 13 12 11 11 10 9 9 8 7 7 7 6 6 6 6 6 5 5 5 6 6 6 6 6 7 7 7
23 21 20 19 18 18 17 16 16 15 15 14 14 14 13 13 13 12 11 10 10 9 8 7 7 6 6 6 5 5 5 5 5 5 5 5 5 5 5 6 6 6 7 7

GEFSCGP_850_meantemp_054.txt.gz
Temperature
26 23 22 23 23 24 25 25 25 26 28 27 26 24 24 23 22 21 20 20 20 20 20 21 21 21 20 20 19 19 19 19 18 18 18 19 19 19 19 19 19 19 19 19
23 23 25 26 27 27 26 26 25 26 27 26 24 23 22 21 20 19 18 18 18 18 19 19 20 20 20 19 19 19 19 18 18 18 18 18 18 19 19 19 19 19 19 19
24 26 28 28 27 27 27 26 26 26 25 24 24 21 20 19 19 18 17 16 17 17 17 18 18 18 19 19 18 18 18 18 18 18 18 18 18 18 18 18 19 19 18 18
25 27 27 27 27 27 25 27 26 26 23 21 22 20 19 18 18 17 16 15 15 16 16 16 17 17 18 18 18 18 17 17 18 18 18 18 18 18 18 18 18 18 18 18
24 25 26 26 27 27 26 26 25 24 22 21 20 19 18 18 17 16 16 15 15 15 15 16 16 16 16 17 17 16 16 17 17 17 17 17 18 18 18 18 18 17 17 17
25 26 26 26 27 27 27 25 22 19 19 20 20 19 18 17 16 16 16 15 15 15 15 15 16 16 16 16 16 16 16 16 16 16 16 17 17 17 17 17 17 17 17 17
23 25 25 26 26 26 25 21 20 20 18 19 19 18 17 17 17 16 16 15 15 16 16 16 16 16 16 16 15 15 15 15 15 15 15 15 15 16 16 16 16 16 16 16
22 23 24 25 25 24 25 22 20 20 19 18 18 18 17 17 16 16 16 16 16 16 16 16 16 15 15 15 15 15 15 15 15 15 15 15 14 14 14 14 14 14 14 15
22 22 25 26 26 25 24 22 21 19 19 18 17 17 16 16 16 16 16 16 16 16 16 16 15 15 15 15 15 15 14 14 14 14 13 13 13 13 13 13 13 13 13 13
22 23 24 25 24 24 23 22 19 19 19 19 18 17 16 16 16 16 16 16 16 16 16 16 15 15 15 15 14 14 14 14 13 13 13 13 12 12 12 12 12 12 12 12
23 22 22 22 23 23 22 22 19 17 18 18 18 17 17 16 15 15 15 16 16 16 16 16 16 15 15 15 14 14 14 13 13 13 12 12 12 11 11 11 11 11 11 11
23 19 20 21 22 23 22 22 19 19 19 18 17 16 17 15 15 16 16 17 17 16 16 16 16 15 15 14 14 14 13 13 13 12 12 12 11 11 11 11 11 10 10 10
22 19 19 20 20 21 21 21 20 17 16 17 16 17 16 16 16 16 17 17 17 16 16 16 15 15 14 14 14 13 13 13 12 12 12 11 11 11 11 10 10 10 10 10
22 19 19 20 20 21 21 21 20 18 16 17 17 17 16 15 15 16 16 16 16 16 15 15 14 14 14 14 13 13 13 12 12 12 11 11 11 11 11 10 10 10 10 10
20 20 21 21 22 21 21 20 20 19 18 17 17 16 15 15 15 16 16 16 15 15 14 14 14 14 13 13 13 13 12 12 12 12 11 11 11 11 10 10 10 10 10 10
18 20 19 20 21 20 19 20 20 19 18 18 16 15 15 15 15 15 15 15 14 14 14 14 13 13 13 13 12 12 12 12 11 11 11 11 11 10 10 10 10 10 10 9
19 19 19 19 20 20 17 18 18 18 16 16 15 14 14 14 14 15 15 15 14 14 14 13 13 13 12 12 12 12 12 11 11 11 11 10 10 10 10 10 10 9 9 9
19 18 17 18 18 19 18 19 19 17 15 15 15 15 14 14 15 15 15 14 14 14 13 13 13 12 12 12 11 11 11 11 11 10 10 10 10 10 10 9 9 9 9 9
19 19 18 17 18 18 18 18 18 17 15 15 15 14 14 14 14 13 14 14 13 13 13 12 12 12 11 11 11 10 10 10 10 10 9 9 9 9 9 9 9 9 9 9
18 17 17 17 19 18 17 18 19 17 15 14 14 13 14 13 10 11 14 13 13 12 12 11 11 11 10 10 10 9 9 9 9 9 8 8 8 8 8 8 8 8 8 8
19 17 16 17 17 17 17 18 17 15 14 14 15 14 14 12 12 13 13 13 12 11 11 10 10 9 9 9 8 8 8 8 7 7 7 7 7 7 7 7 7 8 8 8
17 17 16 16 16 16 17 17 15 14 15 15 15 14 14 13 13 13 12 12 11 10 10 9 9 8 8 7 7 7 7 6 6 6 6 6 6 6 6 6 6 7 7 7
17 16 15 15 15 16 17 16 16 15 15 14 14 14 13 13 12 12 11 10 10 9 9 8 7 7 7 6 6 6 6 5 5 5 5 5 5 6 6 6 6 6 6 6
18 17 15 15 15 16 16 16 15 15 14 14 14 13 13 12 12 11 10 9 9 8 8 7 7 6 6 6 5 5 5 5 5 5 5 5 5 5 5 5 5 5 6 6
18 17 15 15 15 16 16 15 15 15 14 14 13 13 12 11 11 10 9 8 8 7 7 6 6 6 5 5 5 5 5 4 4 4 4 4 5 5 5 5 5 5 5 6
16 15 15 14 15 14 15 15 15 14 14 13 13 12 11 11 10 9 8 8 7 7 6 6 5 5 5 5 5 5 4 4 4 4 4 4 4 4 4 5 5 5 5 5

GEFSCGP_850_meantemp_060.txt.gz
Temperature
23 21 21 21 21 22 23 23 22 22 21 19 17 17 17 16 16 16 15 15 15 15 16 17 17 18 18 18 18 18 17 18 17 17 17 16 16 16 16 17 17 17 17 17
21 22 23 23 22 22 22 22 22 22 21 19 17 17 17 16 15 15 14 14 15 15 16 17 17 17 17 18 17 17 17 17 17 16 16 16 16 16 16 16 17 17 17 17
23 23 24 24 24 24 23 23 23 22 21 19 19 18 16 16 16 15 14 15 15 15 16 16 16 17 17 17 17 17 17 16 16 16 16 16 16 16 16 16 17 17 17 17
23 24 24 24 24 25 24 24 24 23 21 19 19 18 17 16 15 15 14 14 15 15 15 16 16 16 17 17 16 16 16 16 16 16 16 16 16 16 16 16 16 17 17 17
23 24 24 24 25 25 24 22 22 21 20 18 18 17 17 16 16 15 14 14 14 15 15 15 15 16 16 16 16 16 16 16 16 16 16 15 15 15 15 15 16 16 16 16
23 23 23 24 24 24 23 21 19 17 17 18 18 18 17 16 16 15 15 14 15 15 15 15 16 16 16 16 16 16 16 16 16 16 15 15 15 15 15 15 15 15 15 15
22 23 23 23 24 23 21 20 19 19 17 18 17 17 17 16 16 15 15 15 15 15 15 15 16 16 16 16 16 16 16 16 15 15 15 15 15 15 14 14 14 14 14 14
22 21 23 23 23 23 21 20 19 19 18 17 17 17 16 16 16 16 15 15 15 15 15 16 16 16 16 16 16 16 15 15 15 15 14 14 14 14 14 13 13 13 13 13
21 22 23 23 22 22 22 18 18 16 17 17 17 17 16 15 15 15 15 15 15 15 15 15 16 16 15 15 15 15 15 15 14 14 14 14 13 13 13 13 12 12 12 12
21 21 22 22 22 21 20 17 16 16 17 18 18 17 16 16 15 14 14 15 15 15 15 15 15 15 15 15 15 14 14 14 14 14 13 13 13 13 12 12 12 11 11 11
21 20 20 20 20 20 20 19 15 14 16 17 17 17 16 15 14 14 14 15 15 15 15 15 15 15 15 14 14 14 14 13 13 13 13 13 12 12 12 11 11 11 11 10
19 17 18 19 20 20 20 19 17 17 16 15 15 15 15 14 14 14 15 15 15 15 15 15 15 14 14 14 13 13 13 13 13 13 12 12 12 12 11 11 11 11 10 10
18 17 17 18 18 18 18 18 16 14 14 14 15 16 15 14 14 15 15 15 15 15 15 15 14 14 14 13 13 13 13 13 12 12 12 12 12 11 11 11 11 11 10 10
18 16 17 19 18 18 18 18 17 15 15 15 16 16 14 14 13 14 15 15 15 15 14 14 14 13 13 13 13 12 12 12 12 12 12 11 11 11 11 11 11 11 10 10
17 17 18 18 18 18 18 18 17 17 16 16 16 15 14 13 13 14 15 15 14 14 14 13 13 12 12 12 12 12 11 11 11 11 11 11 11 11 11 11 11 10 10 10
16 17 18 18 18 18 17 17 17 17 16 16 15 14 13 14 14 14 14 14 13 13 13 12 12 11 11 11 11 10 10 10 10 10 10 10 10 10 10 10 10 10 10 10
15 16 17 17 17 17 17 17 17 16 16 15 14 14 13 12 12 13 14 13 13 12 12 11 11 10 10 10 9 9 9 9 9 9 9 9 9 9 9 9 9 9 9 9
15 14 13 15 17 18 16 17 17 16 15 14 14 13 13 13 13 13 13 13 12 11 11 10 10 9 9 9 9 8 8 8 8 7 8 8 8 8 8 8 8 9 9 9
14 15 14 14 16 17 17 17 16 15 14 14 13 12 13 13 12 12 13 12 11 10 10 9 9 8 8 8 7 7 7 7 7 7 6 6 6 6 7 7 7 7 8 8
14 14 14 14 17 17 17 17 17 15 14 14 13 12 12 11 8 10 12 11 10 10 9 8 8 8 7 7 7 6 6 6 6 6 5 5 6 6 6 6 6 6 7 7
16 14 14 15 16 15 16 16 16 15 14 14 14 13 12 10 10 11 11 10 9 9 8 8 7 7 7 6 6 5 5 5 5 5 5 5 5 5 5 5 5 5 6 6
16 15 14 13 15 16 16 15 14 14 15 14 14 13 12 12 11 11 10 9 8 8 7 7 6 6 6 6 5 5 5 5 5 5 5 5 5 5 5 5 5 5 5 5
14 14 13 14 14 15 16 16 16 15 15 14 13 13 12 11 10 10 9 8 8 7 7 6 6 6 6 5 5 5 5 5 5 4 4 4 4 4 4 4 5 5 5 5
15 12 12 13 13 15 16 16 15 15 14 13 13 12 11 10 9 9 8 8 7 7 6 6 5 5 5 5 5 5 5 5 4 4 4 4 4 4 4 4 4 4 4 5
15 13 13 14 14 15 15 15 15 14 14 13 12 11 10 9 9 8 7 7 7 6 6 5 5 5 5 5 5 5 5 5 4 4 4 4 4 4 4 4 4 4 4 4
13 13 14 14 16 14 16 16 15 14 13 12 12 11 10 9 8 8 7 7 6 6 5 5 5 5 5 5 5 5 5 4 4 4 4 4 4 4 4 4 4 4 4 4

GEFSCGP_850_meantemp_066.txt.gz
Temperature
28 29 29 29 29 29 29 29 29 27 26 26 25 24 22 21 21 20 19 19 17 17 16 16 16 16 16 17 17 17 17 17 17 17 16 16 16 16 16 16 16 16 16 16
29 29 29 29 29 29 29 28 28 27 26 26 25 23 22 21 20 19 19 18 18 17 16 16 16 16 16 16 17 17 17 17 17 17 16 16 16 16 15 15 15 15 16 16
29 29 29 29 29 29 29 29 28 27 26 26 26 24 23 22 20 19 18 18 17 17 17 16 16 16 16 17 17 17 17 17 17 17 16 16 15 15 15 15 15 15 16 16
29 29 29 29 29 29 28 29 28 27 27 27 27 26 24 23 22 21 19 18 18 17 17 17 16 16 16 16 16 17 17 17 16 16 15 15 15 15 15 15 15 15 15 15
29 29 28 28 28 28 28 28 28 28 28 28 27 27 25 24 23 22 21 19 18 17 17 16 16 16 16 16 16 16 16 16 16 16 16 15 15 15 15 14 15 15 15 15
29 29 28 28 28 28 28 28 27 28 28 27 27 26 25 25 24 23 21 19 18 18 17 17 16 16 16 16 16 15 15 15 15 15 15 15 15 15 14 14 14 14 14 14
28 28 29 28 28 28 28 27 27 26 26 26 26 26 24 23 23 22 21 20 19 18 18 17 17 16 16 16 15 15 15 15 14 14 14 14 14 14 14 14 14 13 13 13
27 27 28 28 27 27 27 27 26 25 26 26 26 25 23 22 21 21 20 20 19 19 18 17 17 17 16 16 15 15 14 14 14 14 14 13 13 13 13 13 13 13 13 13
27 27 27 27 27 27 27 27 27 27 26 26 26 24 22 22 22 21 20 20 19 19 18 18 17 17 16 16 15 15 14 13 13 13 13 13 13 13 13 12 12 12 12 12
28 26 27 27 28 27 27 27 27 26 25 25 25 25 23 22 22 22 21 21 20 19 18 18 17 17 16 15 15 14 14 13 13 13 12 13 12 12 12 12 12 12 12 11
28 27 27 27 26 26 26 26 26 26 25 25 24 24 23 22 22 22 21 20 19 19 18 18 17 16 15 15 14 14 13 13 13 12 12 12 12 12 11 11 11 11 11 11
27 27 26 26 25 26 26 25 25 25 24 25 25 24 22 22 21 21 20 20 19 18 17 17 16 15 15 14 14 13 13 12 12 12 12 11 11 11 11 11 11 11 11 11
26 26 26 26 25 26 25 25 25 25 25 24 24 24 22 22 21 20 20 19 18 17 17 16 15 14 14 13 13 12 12 12 11 11 11 11 11 10 10 10 10 10 10 10
25 26 26 25 25 26 25 24 24 25 25 24 24 23 24 23 22 20 19 18 18 17 16 15 14 14 13 12 12 11 11 11 10 10 10 10 10 10 10 10 10 9 10 10
26 26 26 26 25 25 25 24 24 24 24 23 23 23 23 22 21 19 18 18 17 16 15 15 14 13 12 12 11 11 10 10 9 9 9 9 9 9 9 9 9 9 9 9
26 26 25 25 25 25 24 24 24 24 23 23 23 23 23 21 20 19 18 17 16 15 15 14 13 12 11 11 10 10 9 9 8 8 8 8 8 8 8 8 8 8 8 8
26 25 25 26 25 24 24 24 24 23 23 23 22 22 22 21 19 18 17 16 15 14 13 13 12 11 10 10 9 9 8 8 8 8 7 7 7 7 7 7 7 7 7 7
25 25 25 25 24 23 24 24 24 23 23 23 22 22 21 20 18 17 16 15 14 13 12 12 11 10 10 9 9 8 8 8 7 7 7 7 7 6 6 6 6 6 6 7
24 24 25 25 25 25 24 23 23 22 22 23 21 21 20 19 18 19 16 14 13 12 11 11 10 10 9 9 8 7 7 7 7 7 7 6 6 6 6 6 6 6 6 6
23 24 25 25 23 23 24 23 22 22 22 22 20 20 19 18 18 19 15 13 12 11 11 10 9 9 8 8 7 7 7 6 6 6 6 6 6 5 5 5 5 5 5 6
25 24 24 24 24 25 24 22 22 22 22 20 19 19 18 17 17 15 14 13 12 11 10 9 9 8 8 7 6 6 6 6 6 6 5 5 5 5 5 5 5 5 5 5
25 25 24 24 23 24 23 23 22 22 20 19 18 18 17 16 15 14 13 12 11 10 10 9 8 8 7 7 6 6 6 6 5 5 5 5 5 5 5 5 5 5 5 5
25 25 25 24 24 23 23 22 21 19 19 18 18 17 16 15 14 13 12 11 11 10 9 8 8 7 7 6 6 6 6 5 5 5 5 5 5 5 5 5 5 5 5 5
25 22 23 23 24 23 22 21 20 19 18 17 16 16 15 14 13 12 11 11 10 9 9 8 7 7 6 6 6 6 5 5 5 5 5 5 5 5 5 5 5 5 5 5
25 23 23 23 24 23 22 21 20 18 17 17 16 15 14 13 13 12 11 10 9 9 8 7 7 6 6 6 6 5 5 5 5 5 5 5 5 5 5 5 5 5 5 5
25 24 23 24 24 23 22 20 19 18 17 16 15 15 14 13 12 11 10 10 9 8 8 7 7 6 6 6 6 5 5 5 5 5 5 5 5 5 5 5 5 5 5 5

GEFSCGP_850_meantemp_072.txt.gz
Temperature
30 29 28 29 30 30 30 29 28 29 30 30 29 27 26 26 25 24 22 21 20 19 19 18 18 18 18 18 18 18 18 18 18 18 17 17 17 17 17 17 16 16 16 16
29 28 29 30 30 30 30 29 29 29 30 30 28 27 26 25 25 24 22 21 20 20 19 19 18 18 18 18 18 18 18 18 18 17 17 17 17 17 16 16 16 16 16 16
29 29 30 30 30 30 29 28 28 28 28 29 28 25 23 23 23 23 22 22 21 20 20 19 19 18 18 18 18 18 18 17 17 17 17 17 16 16 16 16 16 16 15 15
29 30 30 29 29 29 27 28 29 28 27 26 26 23 20 21 22 23 23 22 22 21 20 20 19 18 18 18 17 17 17 17 16 16 16 16 16 16 16 15 15 15 15 15
29 30 29 29 29 29 29 29 28 27 26 25 24 22 20 19 20 22 23 23 22 21 21 20 19 19 18 18 18 17 17 16 16 16 15 15 15 15 15 15 15 15 15 15
29 30 31 31 31 31 30 29 26 24 23 22 21 21 20 20 21 22 23 23 22 21 21 20 20 19 19 18 18 18 17 16 16 15 15 15 14 14 14 14 14 14 14 14
27 28 29 31 30 30 30 27 23 20 19 20 21 21 21 22 23 24 24 23 23 22 21 21 20 19 19 19 18 18 17 16 16 15 15 14 14 14 14 14 14 14 14 14
24 25 28 30 30 29 29 28 24 22 22 22 21 20 21 23 24 24 24 24 23 22 22 21 20 20 19 19 18 17 17 16 15 15 14 14 14 13 13 13 13 13 13 13
26 26 29 30 31 30 29 29 29 27 26 24 22 20 21 24 25 25 25 24 23 23 22 21 21 20 19 19 18 17 16 16 15 15 14 14 13 13 13 13 13 13 13 13
28 27 29 30 31 31 30 30 29 27 26 25 23 22 22 23 24 25 25 24 23 22 22 21 21 20 19 18 17 17 16 15 15 14 14 13 13 13 12 12 12 12 12 12
30 28 29 29 28 29 29 29 28 28 27 26 25 23 24 24 25 25 25 24 23 22 21 21 20 19 18 17 16 16 15 14 14 13 13 13 12 12 12 12 12 12 11 11
30 29 27 26 26 28 29 28 28 26 26 27 26 23 26 26 26 25 24 23 22 21 21 20 19 18 17 16 15 15 14 13 13 13 12 12 12 11 11 11 11 11 11 11
29 27 26 24 23 25 28 29 28 27 27 26 26 25 27 26 25 24 23 23 22 21 20 19 18 17 16 15 14 14 13 13 12 12 11 11 11 10 10 10 10 10 10 10
28 28 27 26 26 27 28 28 28 27 26 26 26 26 26 25 24 24 23 22 21 20 19 18 17 16 15 14 14 13 12 12 11 11 10 10 10 10 9 9 9 9 9 9
29 28 28 28 29 29 29 28 28 27 27 26 26 26 25 24 24 23 22 21 21 20 19 17 16 15 14 14 13 12 12 11 11 10 10 10 9 9 9 9 9 9 9 9
29 27 27 28 28 28 28 28 28 28 27 27 26 26 25 24 23 22 22 21 20 19 18 16 15 14 14 13 12 12 11 10 10 9 9 9 9 9 8 8 8 8 8 8
28 27 26 26 28 28 27 28 28 27 27 27 25 25 25 24 23 22 21 20 19 18 17 16 15 14 13 12 12 11 10 10 9 9 9 9 8 8 8 8 8 8 8 8
27 26 26 27 27 25 27 29 28 27 27 27 26 25 24 23 22 21 19 18 17 17 15 15 14 13 13 12 11 10 10 9 9 9 8 8 8 8 7 7 7 7 7 7
28 26 26 26 26 26 27 27 27 26 25 26 25 24 24 23 22 21 19 18 17 16 15 14 13 13 12 11 10 10 9 9 9 8 8 8 7 7 7 7 7 7 7 7
28 27 26 26 25 25 27 27 27 26 24 24 24 23 23 22 21 21 19 17 16 15 14 13 13 12 11 10 10 9 9 8 8 8 7 7 7 7 7 7 7 7 7 7
27 26 26 25 25 26 27 27 27 25 23 23 23 23 22 21 20 19 18 17 16 15 14 13 12 11 11 10 9 9 8 8 7 7 7 7 7 7 7 7 7 7 7 7
28 27 26 26 25 25 27 27 25 23 23 23 23 22 21 20 20 19 17 16 15 14 13 13 12 11 10 9 9 8 8 7 7 7 7 7 7 7 7 7 7 7 7 6
29 28 27 27 26 26 26 26 25 24 23 23 22 21 21 20 19 18 17 15 15 14 13 12 11 11 10 9 9 8 8 7 7 7 7 7 7 7 7 7 7 7 7 6
29 29 27 26 27 27 26 26 25 24 23 23 22 21 20 19 18 17 16 15 14 13 12 12 11 10 9 9 8 8 7 7 7 7 7 7 7 7 7 7 7 7 7 6
28 28 27 26 27 27 26 26 25 24 23 22 22 21 20 19 18 17 16 15 14 13 12 11 10 10 9 8 8 8 7 7 7 7 7 7 7 7 7 7 7 7 7 6
28 28 27 26 27 26 26 25 24 24 23 22 21 20 19 18 17 16 15 14 13 12 12 11 10 9 9 8 8 7 7 7 7 6 7 7 7 7 7 7 7 7 7 7

GEFSCGP_850_meantemp_078.txt.gz
Temperature
26 23 22 22 23 24 24 23 23 23 23 21 19 18 18 18 18 18 18 18 18 18 18 18 18 18 18 18 19 19 19 19 19 18 18 18 17 17 17 16 16 16 16 16
23 23 24 25 25 25 24 23 23 23 23 21 19 18 18 18 18 18 18 18 18 18 18 18 18 18 18 19 19 19 19 18 18 18 18 17 17 17 16 16 16 16 15 15
24 25 26 26 25 25 24 23 23 22 22 21 20 18 17 17 18 18 19 19 19 18 18 18 18 19 19 19 19 18 18 18 18 18 17 17 16 16 16 16 15 15 15 15
25 26 26 26 25 24 23 24 24 23 20 18 19 17 17 17 17 18 18 19 19 19 19 19 19 19 19 19 18 18 18 18 17 17 17 16 16 16 15 15 15 14 14 14
24 25 25 25 26 25 24 24 23 21 19 18 18 17 17 16 17 18 18 19 19 19 19 19 19 19 19 19 18 18 18 17 17 16 16 16 15 15 15 14 14 14 14 14
24 25 25 26 26 26 24 22 20 18 17 17 17 17 17 16 17 18 18 19 20 20 19 19 19 19 19 19 18 18 17 17 16 16 15 15 15 14 14 14 14 13 13 13
24 25 25 26 25 24 23 20 19 19 17 17 17 17 17 17 18 18 18 19 20 20 20 19 19 19 19 18 18 17 17 16 16 15 15 14 14 14 13 13 13 13 13 13
23 23 25 26 25 24 23 21 19 20 18 17 17 17 17 18 18 19 19 19 20 20 20 20 19 19 19 18 18 17 17 16 15 15 14 14 14 13 13 13 12 12 12 12
22 23 25 26 26 25 24 21 20 18 17 17 17 17 18 18 18 19 19 20 20 20 20 20 19 19 18 18 17 17 16 16 15 14 14 13 13 12 12 12 12 12 12 11
23 23 24 25 25 24 23 21 18 18 18 18 18 17 17 19 18 18 19 19 20 20 19 19 19 18 18 17 17 16 15 15 14 14 13 13 12 12 11 11 11 11 11 11
22 22 22 23 23 23 23 22 19 17 18 17 18 18 19 18 18 18 19 20 20 20 20 19 19 18 17 17 16 15 15 14 13 13 12 12 11 11 11 10 10 10 10 10
22 19 20 22 23 24 23 22 20 19 19 17 17 17 20 19 19 19 20 20 20 20 19 18 18 17 17 16 15 15 14 13 12 12 12 11 11 10 10 10 10 10 9 9
23 19 20 20 21 22 23 23 21 18 17 17 17 19 20 19 19 21 20 20 20 19 18 18 17 16 16 15 14 14 13 12 12 11 11 10 10 10 9 9 9 9 9 9
22 20 20 21 21 22 23 24 23 20 18 19 18 19 19 19 19 19 20 20 19 18 17 17 16 16 15 14 13 13 12 12 11 11 10 10 10 9 9 9 9 9 8 8
22 22 23 22 23 24 24 24 23 22 20 19 19 18 18 18 18 20 19 19 18 17 17 16 16 15 14 13 13 12 12 11 11 10 10 9 9 9 9 8 8 8 8 8
21 22 23 22 24 24 24 24 24 23 22 20 19 19 19 19 19 19 18 18 17 17 16 15 15 14 13 13 12 12 11 11 10 10 9 9 9 8 8 8 8 8 8 8
20 21 21 20 22 23 22 23 23 23 22 20 19 19 18 17 17 17 18 18 17 16 16 15 14 14 13 12 12 11 11 10 10 9 9 8 8 8 8 8 8 7 7 7
20 19 18 19 21 22 21 22 23 21 21 20 19 18 18 18 18 18 18 17 16 16 15 15 14 13 12 12 11 11 10 10 9 9 8 8 8 8 8 8 8 7 7 7
20 20 19 19 20 21 22 23 21 20 20 20 19 18 18 18 17 16 17 17 16 16 15 14 13 13 12 11 11 10 10 9 9 8 8 8 8 8 8 8 7 7 7 7
20 19 19 19 20 20 21 23 23 20 19 20 19 18 18 17 14 15 17 16 16 15 15 14 13 12 12 11 10 10 9 9 9 8 8 8 8 7 7 7 7 7 7 7
21 20 19 19 19 20 21 23 23 21 19 21 21 21 20 18 17 18 17 17 16 15 14 14 13 12 11 11 10 10 9 9 8 8 8 8 8 7 7 7 7 7 7 7
20 19 19 18 19 20 22 23 21 20 22 22 21 21 20 20 19 18 17 17 16 15 14 13 13 12 11 10 10 9 9 8 8 8 8 8 8 7 7 7 7 7 7 7
20 19 18 18 19 21 24 24 24 24 22 22 22 21 21 20 19 18 17 16 16 15 14 13 12 12 11 10 9 9 9 8 8 8 8 8 8 8 7 7 7 7 7 7
21 21 20 20 20 22 24 25 24 24 23 22 22 21 21 20 19 18 17 16 16 15 14 13 12 12 11 10 9 9 8 8 8 8 8 8 8 8 7 7 7 7 7 7
22 21 20 19 20 22 23 24 24 23 23 22 22 21 21 20 19 18 17 16 16 15 14 13 12 11 10 10 9 9 8 8 8 8 8 8 8 7 7 7 7 7 7 7
20 21 20 20 21 20 23 24 23 23 22 22 21 21 20 20 19 18 17 16 15 14 14 13 12 11 10 10 9 9 8 8 8 8 8 8 8 7 7 7 8 8 7 7

GEFSCGP_850_meantemp_084.txt.gz
Temperature
22 20 20 20 20 22 22 21 20 20 20 19 18 17 17 17 17 17 17 17 18 18 18 18 18 18 18 18 18 18 18 18 18 18 17 17 17 17 17 17 16 16 16 16
21 21 22 22 22 21 21 21 20 20 20 19 18 17 17 17 16 17 17 17 18 18 18 18 18 18 18 18 18 18 18 18 18 18 17 17 17 17 16 16 16 16 15 15
22 22 23 23 23 22 22 21 21 20 19 18 18 18 17 17 17 17 17 17 18 18 18 18 18 19 19 18 18 18 18 18 18 17 17 17 16 16 16 16 15 15 15 15
22 23 23 23 23 23 21 21 21 20 18 17 18 17 17 16 16 17 17 17 18 18 18 18 19 19 19 18 18 18 18 18 17 17 17 16 16 16 15 15 15 14 14 14
23 23 23 23 23 23 21 20 20 19 17 17 16 17 16 16 16 17 17 17 18 18 18 19 19 18 18 18 18 18 17 17 17 16 16 16 15 15 15 14 14 14 13 13
23 23 23 23 23 22 20 19 18 16 16 17 17 16 17 16 17 17 17 18 19 19 18 18 18 18 18 18 18 17 17 17 16 16 15 15 15 14 14 14 13 13 13 13
23 23 23 23 22 21 20 18 17 18 16 17 16 16 16 17 17 17 17 18 19 19 19 19 18 18 18 18 18 17 17 16 16 15 15 14 14 13 13 13 12 12 12 12
22 22 23 23 22 21 20 19 18 19 18 17 16 16 17 18 18 18 18 19 19 19 19 19 19 19 18 18 17 17 16 16 15 15 14 14 13 13 12 12 12 11 11 11
21 22 23 23 23 21 20 18 17 16 16 17 17 17 17 18 18 17 18 18 19 19 19 19 19 18 18 18 17 16 16 15 15 14 13 13 12 12 12 11 11 11 11 10
21 22 23 23 23 21 20 17 15 16 17 18 18 17 17 19 19 18 17 18 19 19 19 19 19 18 18 17 16 16 15 14 14 13 13 12 12 11 11 11 10 10 10 10
21 21 22 22 22 22 20 18 15 14 15 16 17 17 17 18 18 18 18 19 20 19 19 19 18 18 17 16 16 15 14 14 13 13 12 11 11 11 10 10 10 9 9 9
19 18 19 21 21 21 21 19 16 18 17 15 16 16 18 17 17 18 19 19 20 19 19 18 18 17 16 16 15 14 14 13 12 12 11 11 10 10 10 9 9 9 9 9
19 18 19 20 20 21 21 19 17 15 14 14 16 18 18 17 17 18 19 19 19 19 18 18 17 17 16 15 14 14 13 12 12 11 11 10 10 10 9 9 9 9 9 9
19 18 19 20 20 21 21 21 17 16 16 16 16 18 18 18 17 18 19 19 19 19 18 18 17 16 15 14 14 13 12 12 11 11 10 10 9 9 9 9 8 8 8 8
19 20 20 19 20 21 21 21 19 18 17 17 18 17 18 17 17 18 18 19 18 18 18 17 17 16 15 14 13 13 12 11 11 10 10 9 9 9 8 8 8 8 8 8
18 20 20 21 21 21 21 21 21 20 19 18 19 18 17 17 18 18 18 18 18 18 18 17 16 15 14 14 13 12 11 11 10 10 9 9 9 8 8 8 8 8 8 8
17 18 19 19 20 21 21 21 21 21 20 18 19 18 17 16 16 18 18 19 19 18 18 17 16 15 14 13 12 12 11 10 10 9 9 9 8 8 8 8 8 8 8 8
16 16 16 17 20 21 20 19 20 20 20 18 18 18 16 17 19 19 19 19 19 18 17 16 15 14 14 13 12 11 11 10 10 9 9 9 8 8 8 8 8 8 8 8
15 16 15 16 19 20 20 20 19 20 20 19 18 17 17 17 17 18 19 19 18 18 17 16 15 14 13 12 12 11 10 10 9 9 9 8 8 8 8 8 8 8 8 7
15 15 16 16 19 19 20 20 20 20 20 19 18 16 16 16 15 16 20 19 18 17 17 16 15 14 13 12 11 11 10 10 9 9 9 8 8 8 8 8 8 8 7 7
17 16 17 16 18 18 19 20 20 20 19 21 20 19 17 17 18 20 20 19 18 17 16 15 14 14 13 12 11 11 10 9 9 9 9 8 8 8 8 8 8 7 7 7
17 17 16 15 18 18 20 19 19 20 22 23 22 21 21 21 21 20 20 19 18 17 16 15 14 14 13 12 11 11 10 9 9 9 9 8 8 8 8 8 8 7 7 7
16 16 16 16 18 19 20 21 23 23 23 23 23 22 22 21 21 20 19 19 18 17 16 15 14 14 13 12 11 11 10 9 9 9 9 8 8 8 8 8 8 7 7 7
18 15 15 16 17 20 21 22 23 23 24 24 23 23 22 21 21 20 19 19 18 17 16 15 14 14 13 12 11 10 10 9 9 9 9 9 8 8 8 8 8 7 7 7
18 18 17 17 17 20 23 23 24 24 23 23 23 22 22 21 21 20 19 19 18 17 16 15 14 14 13 12 11 11 10 10 9 9 9 9 8 8 8 8 8 7 7 7
15 16 17 17 19 18 21 23 23 23 23 23 23 22 22 21 21 20 19 19 18 17 16 15 14 14 13 12 11 11 10 10 9 9 9 9 8 8 8 8 8 8 7 7